| time (UTC) | temp F | wind direction | speed MPH | gust MPH | rain 1hr in | rain 24hr in | rain mn in | humidity % | barometer mb |
| 20260507140505 | 59 | 11 | 6.0 | 12.0 | 0.00 | 0.84 | 0.84 | 94 | 1010.5 |
| 20260507140005 | 59 | 11 | 6.0 | 13.0 | 0.01 | 0.84 | 0.84 | 94 | 1010.5 |
| 20260507134505 | 60 | 13 | 2.0 | 10.0 | 0.03 | 0.84 | 0.84 | 95 | 1010.5 |
| 20260507133504 | 60 | 13 | 5.0 | 12.0 | 0.03 | 0.84 | 0.84 | 95 | 1010.4 |
| 20260507132504 | 60 | 12 | 6.0 | 12.0 | 0.04 | 0.84 | 0.84 | 94 | 1010.2 |
| 20260507132004 | 60 | 11 | 6.0 | 12.0 | 0.04 | 0.84 | 0.84 | 94 | 1010.4 |
| 20260507131504 | 60 | 11 | 6.0 | 13.0 | 0.05 | 0.84 | 0.84 | 94 | 1010.2 |
| 20260507130005 | 60 | 12 | 7.0 | 13.0 | 0.07 | 0.83 | 0.83 | 95 | 1010.6 |
| 20260507125504 | 60 | 11 | 7.0 | 15.0 | 0.06 | 0.82 | 0.82 | 94 | 1010.7 |
| 20260507125004 | 60 | 11 | 6.0 | 15.0 | 0.06 | 0.81 | 0.81 | 95 | 1010.8 |
| 20260506203504 | 79 | 16 | 6.0 | 17.0 | 0.00 | 0.00 | 0.00 | 59 | 1009.7 |
| 20260506203004 | 79 | 17 | 6.0 | 16.0 | 0.00 | 0.00 | 0.00 | 58 | 1009.8 |
| 20260506201504 | 79 | 183 | 6.0 | 14.0 | 0.00 | 0.00 | 0.00 | 61 | 1010.2 |
| 20260506201003 | 79 | 196 | 6.0 | 17.0 | 0.00 | 0.00 | 0.00 | 62 | 1010.2 |
| 20260506200004 | 79 | 196 | 6.0 | 15.0 | 0.00 | 0.00 | 0.00 | 63 | 1010.5 |
| 20260506195504 | 79 | 200 | 7.0 | 18.0 | 0.00 | 0.00 | 0.00 | 63 | 1010.6 |
| 20260506195004 | 79 | 201 | 6.0 | 18.0 | 0.00 | 0.00 | 0.00 | 63 | 1010.7 |
| 20260506194504 | 79 | 204 | 5.0 | 14.0 | 0.00 | 0.00 | 0.00 | 63 | 1010.7 |
| 20260506194004 | 79 | 196 | 6.0 | 12.0 | 0.00 | 0.00 | 0.00 | 63 | 1010.9 |
| 20260506192004 | 79 | 194 | 6.0 | 14.0 | 0.00 | 0.00 | 0.00 | 63 | 1011.0 |
| 20260506191504 | 78 | 193 | 6.0 | 13.0 | 0.00 | 0.00 | 0.00 | 64 | 1011.0 |
| 20260506191004 | 78 | 192 | 5.0 | 13.0 | 0.00 | 0.00 | 0.00 | 64 | 1011.1 |
| 20260506190504 | 78 | 192 | 6.0 | 14.0 | 0.00 | 0.00 | 0.00 | 65 | 1011.0 |
| 20260506190006 | 78 | 189 | 6.0 | 15.0 | 0.00 | 0.00 | 0.00 | 64 | 1011.1 |
| 20260506185504 | 78 | 188 | 6.0 | 19.0 | 0.00 | 0.00 | 0.00 | 64 | 1011.2 |
| 20260506185004 | 77 | 192 | 7.0 | 19.0 | 0.00 | 0.00 | 0.00 | 64 | 1011.3 |
| 20260506184504 | 77 | 187 | 7.0 | 19.0 | 0.00 | 0.00 | 0.00 | 64 | 1011.3 |
| 20260506184004 | 77 | 181 | 6.0 | 17.0 | 0.00 | 0.00 | 0.00 | 64 | 1011.2 |
| 20260506183504 | 77 | 181 | 6.0 | 15.0 | 0.00 | 0.00 | 0.00 | 64 | 1011.2 |
| 20260506182504 | 77 | 183 | 6.0 | 14.0 | 0.00 | 0.00 | 0.00 | 64 | 1011.4 |
| 20260506181504 | 77 | 187 | 7.0 | 19.0 | 0.00 | 0.00 | 0.00 | 64 | 1011.5 |
| 20260506181004 | 77 | 188 | 7.0 | 19.0 | 0.00 | 0.00 | 0.00 | 64 | 1011.8 |
| 20260506180504 | 77 | 186 | 6.0 | 18.0 | 0.00 | 0.00 | 0.00 | 64 | 1011.9 |
| 20260506180005 | 77 | 186 | 6.0 | 28.0 | 0.00 | 0.00 | 0.00 | 64 | 1012.0 |
| 20260506175504 | 77 | 188 | 7.0 | 28.0 | 0.00 | 0.00 | 0.00 | 63 | 1012.0 |
| 20260506175004 | 77 | 189 | 6.0 | 18.0 | 0.00 | 0.00 | 0.00 | 64 | 1012.1 |
| 20260506174505 | 77 | 187 | 7.0 | 18.0 | 0.00 | 0.00 | 0.00 | 64 | 1012.1 |
| 20260506174004 | 76 | 190 | 6.0 | 15.0 | 0.00 | 0.00 | 0.00 | 64 | 1012.4 |
| 20260506173504 | 76 | 189 | 6.0 | 13.0 | 0.00 | 0.00 | 0.00 | 65 | 1012.5 |
| 20260506173004 | 76 | 174 | 6.0 | 18.0 | 0.00 | 0.00 | 0.00 | 65 | 1012.5 |
| 20260506172503 | 76 | 38 | 6.0 | 18.0 | 0.00 | 0.00 | 0.00 | 65 | 1012.4 |
| 20260506172004 | 76 | 19 | 5.0 | 15.0 | 0.00 | 0.00 | 0.00 | 66 | 1012.6 |
| 20260506171504 | 75 | 18 | 5.0 | 15.0 | 0.00 | 0.00 | 0.00 | 66 | 1012.8 |
| 20260506171004 | 75 | 17 | 4.0 | 13.0 | 0.00 | 0.00 | 0.00 | 67 | 1012.7 |
| 20260506170503 | 75 | 16 | 5.0 | 12.0 | 0.00 | 0.00 | 0.00 | 68 | 1012.7 |
| 20260506170004 | 75 | 16 | 5.0 | 12.0 | 0.00 | 0.00 | 0.00 | 68 | 1012.7 |
| 20260506165504 | 75 | 15 | 6.0 | 12.0 | 0.00 | 0.00 | 0.00 | 68 | 1012.8 |
| 20260506165005 | 74 | 16 | 6.0 | 15.0 | 0.00 | 0.00 | 0.00 | 68 | 1012.8 |
| 20260506164504 | 74 | 17 | 5.0 | 15.0 | 0.00 | 0.00 | 0.00 | 69 | 1012.9 |
| 20260506164004 | 74 | 17 | 5.0 | 16.0 | 0.00 | 0.00 | 0.00 | 70 | 1012.8 |
| 20260506163504 | 74 | 15 | 5.0 | 16.0 | 0.00 | 0.00 | 0.00 | 70 | 1012.8 |
| 20260506163005 | 73 | 14 | 5.0 | 14.0 | 0.00 | 0.00 | 0.00 | 70 | 1012.9 |
| 20260506162504 | 73 | 15 | 5.0 | 12.0 | 0.00 | 0.00 | 0.00 | 70 | 1013.1 |
| 20260506161504 | 73 | 15 | 4.0 | 12.0 | 0.00 | 0.00 | 0.00 | 71 | 1013.3 |
| 20260506161003 | 73 | 14 | 5.0 | 14.0 | 0.00 | 0.00 | 0.00 | 71 | 1013.3 |
| 20260506160504 | 73 | 14 | 6.0 | 14.0 | 0.00 | 0.00 | 0.00 | 71 | 1013.4 |
| 20260506160004 | 73 | 15 | 6.0 | 14.0 | 0.00 | 0.00 | 0.00 | 71 | 1013.4 |
| 20260506155504 | 73 | 15 | 6.0 | 17.0 | 0.00 | 0.00 | 0.00 | 71 | 1013.5 |
| 20260506154504 | 73 | 15 | 7.0 | 19.0 | 0.00 | 0.00 | 0.00 | 70 | 1013.8 |
| 20260506154004 | 73 | 14 | 6.0 | 19.0 | 0.00 | 0.00 | 0.00 | 70 | 1014.0 |
| 20260506153504 | 73 | 14 | 6.0 | 18.0 | 0.00 | 0.00 | 0.00 | 69 | 1014.1 |
| 20260506153004 | 73 | 14 | 7.0 | 17.0 | 0.00 | 0.00 | 0.00 | 69 | 1014.1 |
| 20260506151504 | 74 | 15 | 7.0 | 17.0 | 0.00 | 0.00 | 0.00 | 69 | 1014.0 |
| 20260506150504 | 74 | 15 | 8.0 | 21.0 | 0.00 | 0.00 | 0.00 | 69 | 1014.0 |
| 20260506150004 | 74 | 17 | 8.0 | 21.0 | 0.00 | 0.00 | 0.00 | 69 | 1014.0 |
| 20260506145504 | 74 | 20 | 8.0 | 22.0 | 0.00 | 0.00 | 0.00 | 69 | 1014.1 |
| 20260506144504 | 74 | 21 | 5.0 | 15.0 | 0.00 | 0.00 | 0.00 | 68 | 1013.9 |
| 20260506144003 | 74 | 19 | 6.0 | 16.0 | 0.00 | 0.00 | 0.00 | 68 | 1014.0 |
| 20260506143504 | 74 | 18 | 7.0 | 19.0 | 0.00 | 0.00 | 0.00 | 69 | 1013.9 |
| 20260506143005 | 74 | 21 | 9.0 | 20.0 | 0.00 | 0.00 | 0.00 | 68 | 1013.7 |
| 20260506142504 | 74 | 21 | 8.0 | 20.0 | 0.00 | 0.00 | 0.00 | 68 | 1014.0 |
| 20260506142004 | 74 | 19 | 6.0 | 17.0 | 0.00 | 0.00 | 0.00 | 69 | 1013.9 |
| 20260506141505 | 74 | 19 | 7.0 | 17.0 | 0.00 | 0.00 | 0.00 | 70 | 1013.6 |
| 20260506141003 | 74 | 20 | 7.0 | 20.0 | 0.00 | 0.00 | 0.00 | 70 | 1013.7 |